Regional Weather Roundup
Issued by NWS Newport/Morehead, NC

Current Version | Previous Version | Text Only | Print | Product List | Glossary On
Versions: 1 2 3 4 5 6 7 8 9 10 11 12 13 14 15 16 17 18 19 20 21 22 23 24 25 26 27 28 29 30 31 32 33 34 35 36 37 38 39 40 41 42 43 44 45 46 47 48 49 50
385
ASUS42 KMHX 280925
RWRMHX
WEATHER ROUNDUP FOR EASTERN NORTH CAROLINA
NATIONAL WEATHER SERVICE NEWPORT/MOREHEAD CITY NC
500 AM EDT THU JUL 28 2016

NOTE: "FAIR" INDICATES FEW OR NO CLOUDS BELOW 12,000 FEET
WITH NO SIGNIFICANT WEATHER AND/OR OBSTRUCTIONS TO VISIBILITY

NCZ015>017-031-032-045>047-102-103-281000-
NORTH COAST

CITY           SKY/WX    TMP DP  RH WIND       PRES   REMARKS
EDENTON        CLEAR     81  73  77 W3        29.91F
ELIZABETH CITY CLEAR     79  74  84 SW8       29.90S
KITTY HAWK     SUNNY     82  77  83 CALM      29.90S
MANTEO           N/A     81  77  87 W6        29.91F

$$

NCZ045>047-081-094-103-104-281000-
CENTRAL COAST

CITY           SKY/WX    TMP DP  RH WIND       PRES   REMARKS
FRISCO         MOCLDY    82  77  84 W3        29.93S

$$

NCZ095-097-098-100-101-281000-
SOUTHERN COAST

CITY           SKY/WX    TMP DP  RH WIND       PRES   REMARKS
BEAUFORT       CLEAR     81  79  94 SW8         N/A
CEDAR ISLAND   NOT AVBL
JACKSONVILLE   CLEAR     78  75  90 SW3       29.92F
PINEY ISLAND   NOT AVBL
WILMINGTON     CLEAR     81  78  91 SW9       29.94S


$$

NCZ011>013-027>030-043-044-078>080-089-090>093-098-281000-
COASTAL PLAIN

CITY           SKY/WX    TMP DP  RH WIND       PRES   REMARKS
AHOSKIE        CLEAR     74  74  98 CALM      29.91S FOG
CLINTON        CLEAR     78  77  96 CALM      29.93F
ELIZABETHTOWN  CLEAR     80  76  86 SW5       29.93F
GOLDSBORO      CLEAR     79  79 100 SW5       29.90F
GREENVILLE     CLEAR     79  77  94 SW6       29.93S
HAVELOCK       CLEAR     78  75  90 SW6       29.93F
KENANSVILLE    NOT AVBL
KINSTON        CLEAR     78  76  92 SW6       29.92S
NEW BERN       CLEAR     77  74  90 SW6       29.93F
RICHLANDS      CLEAR     77  76  96 SW5       29.93F
ROCKY MOUNT    CLEAR     76  76 100 NE3       29.91F FOG
WASHINGTON     CLEAR     76  74  91 SW3       29.91F
WHITEVILLE     CLEAR     80  76  86 SW5       29.94F

$$

AMZ130-135-150-152-154-156-158-170-250-252-270-ANZ085-086-088-633-658-670-281000-
MARINE OBSERVATIONS

STATION/POSITION TIME  TEMP    WIND        PRES    WAVE   SWELL
                       AIR SEA DIR/SP/G            HT/PER HT/PER
                 (UTC) (F)     (DEG/KT/KT) (MB)    (FT/S) (FT/S)
CHESAPEAKE LIGHT NOT AVBL
64 E VA BEACH    0850   81 82  250/  8/  8 1012.1    2/ 6   2/ 6
DUCK             0900   83 71  270/ 10/ 15 1011.8
2 E DUCK         0911      76                N/A     1/ 8
OREGON INLET     0900   82 84  280/  7/ 10 1012.7
13E OREGON INLT  0900      79                N/A     2/ 8   2/ 8
HATTERAS CG      0900   82 83  210/  5/  6 1013.2
DIAMOND BUOY     0850   84 84  280/  4/  6 1013.7    3/ 6   3/ 6
CAPE LOOKOUT     0900   82     240/  6/  8 1013.3
BEAUFORT LAB     0900   82 83  240/  3/  6 1012.7
30 SE NEW RVR IN 0908   84 85  260/ 14/ 19 1013.5
30 SE NEW RVR IN 0825      84                N/A     3/ 6
27 SE WRIGHTSVLE 0908   84 84  240/ 16/ 21 1013.9
5 SE WRIGHTSVLE  0908   81 80  230/  6/ 10 1014.7
225 S CAPE HAT   0850   84 84  250/ 12/ 14 1015.1    3/ 6   2/ 8
41 SE CHARLESTON 0850   85 86  240/ 21/ 25 1014.4    4/ 5   2/ 8

$$




USA.gov is the U.S. government's official web portal to all federal, state and local government web resources and services.